Погода в Тредубье

Россия / Тверская область     56°44′02″N   35°11′28″E
темп.,
°C
ветер,
м/с
пор.,
м/с
влажн.,
%
обл.,
%
осадки,
мм/ч
давл.,
гПа
погр.,
м
18 апреля, вс
вс1800:00+8св4136053 0.0 1023490
03:00+6св413696 0.0 1023468
06:00+4св413790 0.0 1023450
09:00+9всв510600 0.0 1023938
12:00+12всв68455 0.0 10221600
15:00+14всв683876 0.0 10222271
18:00+13св594579 0.0 10221847
21:00+8св5126158 0.0 1024723
19 апреля, пн
пн1900:00+7всв4107491 0.0 1025660
03:00+6всв498287 0.0 1026566
06:00+4св4987100 0.0 1026464
09:00+5всв4773100 0.0 1026654
12:00+8всв5657100 0.0 10261203
15:00+9всв5651100 0.0 10261542
18:00+8всв4656100 0.0 10261386
21:00+6всв4861100 0.0 1026719
20 апреля, вт
вт2000:00+4всв386495 0.0 1025512
03:00+2всв41065100 0.0 1025508
06:00+2всв41066100 0.0 1023687
09:00+3в5975100 0.0 1023750
12:00+2всв41095100 0.7 1022592
15:00+3в51096100 1.3 1020596
18:00+3всв41097100 0.4 1018671
21:00+2всв41197100 0.7 1016690
21 апреля, ср
ср2100:00+3св51397100 3.2 1012841
03:00+2всв61497100 7.3 10071014
06:00+1всв51398100 7.3 1004898
09:00+3в51398100 8.9 1001877
12:00+5в51395100 0.2 999808
15:00+6в31097100 0.8 998649
18:00+4юз3698100 0.9 1000423
21:00+2зюз51197100 2.2 1005835
22 апреля, чт
чт2200:00+2юз41193100 0.2 10081023
03:00+3юз5139228 0.3 1010761
06:00+3юз4119396 0.0 1012611
09:00+5юз4885100 0.0 1014510
12:00+9юз4969100 0.0 10161102
15:00+11зюз466383 0.2 10171321
18:00+10юз24735 0.2 1018364
21:00+6юв22875 0.3 101910